TimeEDT,TemperatureF,Dew PointF,Humidity,Sea Level PressureIn,VisibilityMPH,Wind Direction,Wind SpeedMPH,Gust SpeedMPH,PrecipitationIn,Events,Conditions,WindDirDegrees,DateUTC
12:52 AM,55.4,53.6,94,29.58,10.0,West,4.6,-,N/A,,Overcast,280,2013-06-12 04:52:00
12:56 AM,55.0,54.0,96,29.59,10.0,WNW,4.6,-,N/A,,Overcast,300,2013-06-12 04:56:00
1:40 AM,55.4,53.6,94,29.57,2.5,Calm,Calm,-,N/A,,Overcast,0,2013-06-12 05:40:00
1:56 AM,55.0,54.0,96,29.57,3.0,Calm,Calm,-,N/A,,Overcast,0,2013-06-12 05:56:00
2:26 AM,55.4,55.4,100,29.56,1.8,SSW,3.5,-,N/A,,Overcast,210,2013-06-12 06:26:00
2:42 AM,55.4,55.4,100,29.56,0.5,SW,3.5,-,N/A,Fog,Fog,230,2013-06-12 06:42:00
2:56 AM,55.9,55.0,97,29.56,1.2,Calm,Calm,-,N/A,,Overcast,0,2013-06-12 06:56:00
3:07 AM,55.4,55.4,100,29.56,3.0,Calm,Calm,-,N/A,,Mostly Cloudy,0,2013-06-12 07:07:00
3:21 AM,55.4,55.4,100,29.56,10.0,Calm,Calm,-,N/A,,Mostly Cloudy,0,2013-06-12 07:21:00
3:56 AM,57.9,55.9,93,29.56,10.0,West,8.1,-,N/A,,Overcast,260,2013-06-12 07:56:00
4:56 AM,61.0,55.9,83,29.56,10.0,West,8.1,-,N/A,,Overcast,270,2013-06-12 08:56:00
5:56 AM,61.0,55.0,81,29.57,10.0,WNW,11.5,23.0,N/A,,Overcast,290,2013-06-12 09:56:00
6:56 AM,62.1,55.0,78,29.59,10.0,WNW,11.5,-,0.00,,Overcast,300,2013-06-12 10:56:00
7:56 AM,62.1,55.0,78,29.59,10.0,WNW,10.4,18.4,N/A,,Mostly Cloudy,290,2013-06-12 11:56:00
8:56 AM,64.0,55.9,75,29.59,10.0,NNW,10.4,-,N/A,,Overcast,330,2013-06-12 12:56:00
9:56 AM,66.0,55.9,70,29.60,10.0,WNW,9.2,18.4,N/A,,Overcast,290,2013-06-12 13:56:00
10:56 AM,66.9,54.0,63,29.60,10.0,WNW,13.8,19.6,N/A,,Overcast,300,2013-06-12 14:56:00
11:56 AM,68.0,53.1,59,29.61,10.0,NNW,15.0,23.0,0.00,,Mostly Cloudy,340,2013-06-12 15:56:00
12:56 PM,68.0,53.1,59,29.61,10.0,WNW,12.7,19.6,N/A,,Overcast,290,2013-06-12 16:56:00
1:56 PM,70.0,52.0,53,29.61,10.0,NW,11.5,25.3,N/A,,Mostly Cloudy,320,2013-06-12 17:56:00
2:56 PM,69.1,52.0,54,29.63,10.0,NW,15.0,20.7,N/A,,Overcast,320,2013-06-12 18:56:00
3:56 PM,68.0,53.1,59,29.65,10.0,NNW,12.7,-,N/A,,Overcast,340,2013-06-12 19:56:00
4:56 PM,64.0,55.9,75,29.67,10.0,North,10.4,20.7,N/A,,Overcast,360,2013-06-12 20:56:00
5:56 PM,63.0,54.0,72,29.69,10.0,NW,10.4,-,N/A,,Overcast,320,2013-06-12 21:56:00
6:56 PM,62.1,55.0,78,29.72,10.0,NNW,9.2,-,N/A,,Overcast,330,2013-06-12 22:56:00
7:56 PM,62.1,55.0,78,29.74,10.0,NNW,9.2,-,N/A,,Overcast,340,2013-06-12 23:56:00
8:56 PM,62.1,54.0,75,29.75,10.0,NW,6.9,-,N/A,,Mostly Cloudy,320,2013-06-13 00:56:00
9:56 PM,62.1,54.0,75,29.78,10.0,NW,6.9,-,N/A,,Overcast,320,2013-06-13 01:56:00
10:56 PM,62.1,54.0,75,29.78,10.0,NW,8.1,-,0.00,,Overcast,320,2013-06-13 02:56:00
11:56 PM,61.0,52.0,72,29.78,10.0,North,11.5,-,N/A,,Mostly Cloudy,350,2013-06-13 03:56:00